User: anonymous   Login
Location: Unspecified
(29.9680°N, 0.0000°E)
Time: 11:15:19
(UTC+00:00)
Language:

Vanguard 2 Rocket - Orbit

View from above orbital plane
View from above orbital plane
View from above satellite
View from above satellite

Ground track
Ground track

The orbit data is extracted from the following two-line orbital elements,

1    12U 59001B   20217.92045930 +.00000122 +00000-0 +63891-4 0  9998
2    12 032.9018 181.4030 1664358 330.7254 020.9291 11.44297879285530
Epoch (UTC): 04 August 2020 22:05:27
Eccentricity: 0.1664358
inclination: 32.9018°
perigee height: 556 km
apogee height: 3325 km
right ascension of ascending node: 181.4030°
argument of perigee: 330.7254°
revolutions per day: 11.44297879
mean anomaly at epoch: 20.9291°
orbit number at epoch: 28553

The dashed part of the orbit path shows where the satellite is in the earth's shadow,  

DLR